IT9AOI Weather Reports


time (UTC)temp
C
wind
direction
speed
KPH
gust
KPH
rain 1hr
cm
rain 24hr
cm
rain mn
cm
humidity
%
barometer
mb
20260906110043 34 225 4.8 6.4 0.00 0.00 0.00 19 1022.4
20260906105943 34 225 4.8 6.4 0.00 0.00 0.00 19 1022.7
20260906105842 34 0 4.8 6.4 0.00 0.00 0.00 19 1022.7
20260906105642 34 0 6.4 8.0 0.00 0.00 0.00 19 1022.9
20260906105442 34 90 8.0 12.9 0.00 0.00 0.00 19 1022.7
20260906105343 34 0 6.4 8.0 0.00 0.00 0.00 19 1022.9
20260906105243 34 225 8.0 11.3 0.00 0.00 0.00 19 1022.8
20260906105142 34 270 8.0 11.3 0.00 0.00 0.00 19 1022.8
20260906105042 34 0 4.8 6.4 0.00 0.00 0.00 19 1022.6
20260906104943 34 0 3.2 4.8 0.00 0.00 0.00 19 1022.7
20260906104842 34 0 3.2 4.8 0.00 0.00 0.00 19 1022.6
20260906104543 34 0 6.4 6.4 0.00 0.00 0.00 19 1022.6
20260906103641 34 0 6.4 6.4 0.00 0.00 0.00 19 1023.2
20260906103543 34 0 6.4 6.4 0.00 0.00 0.00 19 1022.7
20260906103441 34 0 6.4 6.4 0.00 0.00 0.00 19 1022.8
20260906103342 34 0 6.4 6.4 0.00 0.00 0.00 19 1022.8
20260906103143 34 135 4.8 6.4 0.00 0.00 0.00 19 1022.7
20260906102941 34 0 3.2 4.8 0.00 0.00 0.00 19 1022.7
20260906102743 34 0 3.2 4.8 0.00 0.00 0.00 19 1022.9
20260906102442 34 0 3.2 3.2 0.00 0.00 0.00 19 1022.9
20260906102143 33 315 1.6 3.2 0.00 0.00 0.00 19 1023.1
20260906101843 33 0 3.2 6.4 0.00 0.00 0.00 19 1022.9
20260906101541 33 0 4.8 6.4 0.00 0.00 0.00 19 1022.9
20260906101443 33 0 8.0 11.3 0.00 0.00 0.00 19 1022.9
20260906101242 33 0 6.4 8.0 0.00 0.00 0.00 19 1022.9
20260906101142 33 0 6.4 8.0 0.00 0.00 0.00 19 1023.2
20260906100942 34 0 6.4 6.4 0.00 0.00 0.00 19 1023.2
20260906100841 34 0 3.2 4.8 0.00 0.00 0.00 19 1023.3
20260906100541 35 180 4.8 6.4 0.00 0.00 0.00 19 1023.3
20260906100143 34 180 3.2 4.8 0.00 0.00 0.00 19 1023.2
20260906100042 34 180 3.2 4.8 0.00 0.00 0.00 19 1023.2
20260906095942 34 180 3.2 4.8 0.00 0.00 0.00 19 1023.1
20260906095842 34 0 3.2 3.2 0.00 0.00 0.00 19 1023.4
20260906095742 34 180 1.6 3.2 0.00 0.00 0.00 19 1023.5
20260906095643 33 0 3.2 3.2 0.00 0.00 0.00 19 1023.5
20260906095542 33 0 3.2 3.2 0.00 0.00 0.00 19 1023.1
20260906095441 33 180 3.2 3.2 0.00 0.00 0.00 19 1023.2
20260906095342 33 90 4.8 6.4 0.00 0.00 0.00 19 1023.2
20260906095242 33 0 6.4 8.0 0.00 0.00 0.00 19 1023.3
20260906095042 34 0 4.8 6.4 0.00 0.00 0.00 19 1023.2
20260906094842 34 0 0.0 3.2 0.00 0.00 0.00 19 1023.4
20260906094642 34 270 3.2 3.2 0.00 0.00 0.00 19 1023.2
20260906094442 34 90 1.6 3.2 0.00 0.00 0.00 19 1023.3
20260906094242 34 90 3.2 4.8 0.00 0.00 0.00 19 1023.3
20260906093942 34 0 1.6 3.2 0.00 0.00 0.00 19 1023.4
20260906093842 34 0 1.6 3.2 0.00 0.00 0.00 19 1023.3
20260906093643 33 0 1.6 3.2 0.00 0.00 0.00 19 1023.2
20260906093543 33 0 1.6 3.2 0.00 0.00 0.00 19 1023.1
20260906093042 33 0 1.6 3.2 0.00 0.00 0.00 19 1023.3
20260906092941 33 180 4.8 6.4 0.00 0.00 0.00 19 1023.2
20260906092741 33 0 3.2 6.4 0.00 0.00 0.00 19 1023.4
20260906092642 33 0 3.2 4.8 0.00 0.00 0.00 19 1023.4
20260906092441 33 90 4.8 6.4 0.00 0.00 0.00 19 1023.4
20260906092142 33 0 6.4 6.4 0.00 0.00 0.00 19 1023.5
20260906092043 33 0 4.8 6.4 0.00 0.00 0.00 19 1023.3
20260906091643 33 0 6.4 6.4 0.00 0.00 0.00 19 1023.3
20260906091441 33 0 3.2 4.8 0.00 0.00 0.00 19 1023.3
20260906091241 33 90 1.6 3.2 0.00 0.00 0.00 19 1023.3
20260906091142 33 0 3.2 3.2 0.00 0.00 0.00 19 1023.2
20260906090741 33 180 1.6 3.2 0.00 0.00 0.00 19 1023.6
20260906090142 33 90 3.2 3.2 0.00 0.00 0.00 19 1023.3
20260906090043 33 90 3.2 3.2 0.00 0.00 0.00 19 1023.3
20260906085842 33 0 3.2 4.8 0.00 0.00 0.00 19 1023.6
20260906085742 33 0 3.2 6.4 0.00 0.00 0.00 19 1023.5
20260906085642 33 90 3.2 6.4 0.00 0.00 0.00 19 1023.5
20260906085242 33 0 3.2 3.2 0.00 0.00 0.00 19 1023.2
20260906085142 32 0 1.6 3.2 0.00 0.00 0.00 19 1023.4
20260906085043 32 0 3.2 4.8 0.00 0.00 0.00 19 1023.3
20260906084943 32 0 3.2 3.2 0.00 0.00 0.00 19 1023.3
20260906084542 32 0 3.2 6.4 0.00 0.00 0.00 19 1023.2
20260906084042 32 270 3.2 4.8 0.00 0.00 0.00 19 1023.4
20260906083642 32 180 1.6 3.2 0.00 0.00 0.00 19 1023.2
20260906083343 32 0 3.2 3.2 0.00 0.00 0.00 19 1023.3
20260906083042 32 180 1.6 3.2 0.00 0.00 0.00 19 1023.4
20260906082942 32 180 0.0 1.6 0.00 0.00 0.00 19 1023.4
20260906082841 32 0 1.6 3.2 0.00 0.00 0.00 19 1023.4
20260906082742 31 0 3.2 3.2 0.00 0.00 0.00 19 1023.2
20260906082642 31 0 3.2 4.8 0.00 0.00 0.00 19 1023.3
20260906082542 31 0 3.2 3.2 0.00 0.00 0.00 19 1023.5
20260906082341 31 0 1.6 3.2 0.00 0.00 0.00 19 1023.3
20260906082242 31 0 4.8 6.4 0.00 0.00 0.00 19 1023.3
20260906082141 30 0 1.6 3.2 0.00 0.00 0.00 19 1023.3
20260906082043 30 90 3.2 4.8 0.00 0.00 0.00 19 1023.6
20260906081942 30 138 3.2 4.8 0.00 0.00 0.00 19 1022.9
20260906081842 30 270 3.2 3.2 0.00 0.00 0.00 19 1023.4
20260906081542 30 180 4.8 6.4 0.00 0.00 0.00 19 1023.4
20260906081442 30 270 6.4 9.7 0.00 0.00 0.00 19 1023.3
20260906081143 30 0 3.2 4.8 0.00 0.00 0.00 19 1023.4
20260906081041 30 0 3.2 6.4 0.00 0.00 0.00 19 1023.3
20260906080941 30 180 3.2 3.2 0.00 0.00 0.00 19 1023.2
20260906080841 30 180 3.2 6.4 0.00 0.00 0.00 19 1023.3
20260906080743 30 0 6.4 11.3 0.00 0.00 0.00 19 1023.3
20260906080342 30 0 6.4 9.7 0.00 0.00 0.00 19 1023.2
20260906080242 30 0 1.6 3.2 0.00 0.00 0.00 19 1022.9
20260906080045 30 0 1.6 3.2 0.00 0.00 0.00 19 1023.2
20260906075743 30 270 3.2 3.2 0.00 0.00 0.00 19 1023.2
20260906075641 30 180 3.2 6.4 0.00 0.00 0.00 19 1023.1
20260906075542 30 0 3.2 3.2 0.00 0.00 0.00 19 1023.3
20260906075342 29 138 3.2 4.8 0.00 0.00 0.00 19 1022.8
20260906075241 29 0 4.8 6.4 0.00 0.00 0.00 19 1022.9
20260906075142 29 0 4.8 6.4 0.00 0.00 0.00 19 1023.1
20260906075041 29 270 4.8 8.0 0.00 0.00 0.00 19 1022.8
20260906074942 29 270 4.8 8.0 0.00 0.00 0.00 19 1022.7
20260906074642 29 270 8.0 12.9 0.00 0.00 0.00 19 1023.1
20260906074543 29 138 3.2 6.4 0.00 0.00 0.00 19 1023.1
20260906074242 29 315 4.8 6.4 0.00 0.00 0.00 19 1022.8
20260906074142 29 0 4.8 6.4 0.00 0.00 0.00 19 1022.8
20260906074042 29 180 4.8 8.0 0.00 0.00 0.00 19 1022.9
20260906073942 29 180 4.8 8.0 0.00 0.00 0.00 19 1022.9
20260906073742 29 225 6.4 6.4 0.00 0.00 0.00 19 1023.1
20260906072442 28 138 6.4 9.7 0.00 0.00 0.00 19 1022.7
20260906072242 28 0 3.2 6.4 0.00 0.00 0.00 19 1022.9
20260906072143 28 315 3.2 6.4 0.00 0.00 0.00 19 1022.5
20260906071941 28 270 6.4 6.4 0.00 0.00 0.00 19 1022.7
20260906071741 28 180 4.8 6.4 0.00 0.00 0.00 19 1022.6
20260906071342 28 0 4.8 6.4 0.00 0.00 0.00 19 1022.7
20260906071041 28 180 4.8 6.4 0.00 0.00 0.00 19 1022.6
20260906070942 28 0 3.2 6.4 0.00 0.00 0.00 19 1022.7
20260906070843 28 270 4.8 6.4 0.00 0.00 0.00 19 1022.9
20260906070742 28 270 6.4 6.4 0.00 0.00 0.00 19 1022.7
20260906070442 28 180 3.2 6.4 0.00 0.00 0.00 19 1022.5
20260906070341 28 180 6.4 6.4 0.00 0.00 0.00 19 1022.3
20260906070242 28 0 6.4 8.0 0.00 0.00 0.00 19 1022.7
20260906065942 28 0 6.4 8.0 0.00 0.00 0.00 19 1022.6
20260906065742 28 138 4.8 6.4 0.00 0.00 0.00 19 1022.5
20260906065641 28 180 6.4 8.0 0.00 0.00 0.00 19 1022.6
20260906065142 28 315 4.8 6.4 0.00 0.00 0.00 19 1022.5
20260906064842 28 0 3.2 4.8 0.00 0.00 0.00 19 1022.6
20260906064742 28 0 3.2 6.4 0.00 0.00 0.00 19 1022.7
20260906064543 27 270 3.2 6.4 0.00 0.00 0.00 19 1022.6
20260906064443 27 0 4.8 6.4 0.00 0.00 0.00 19 1022.5
20260906064342 27 0 3.2 6.4 0.00 0.00 0.00 19 1022.4
20260906063843 27 270 3.2 4.8 0.00 0.00 0.00 19 1022.4
20260906063642 27 180 4.8 6.4 0.00 0.00 0.00 19 1022.6
20260906061503 26 270 6.4 8.0 0.00 0.00 0.00 100 1022.5